Location: Makakahi
(40.6833°S, 175.6000°E)
Time: 14:32:36
(UTC+00:00)

FENGYUN 1C DEB - Pass Details

Date: 07 February 2026
Orbit: 839 x 906 km, 98.9° (Epoch: 3 March)

Event Time Altitude Azimuth Distance (km) Brightness Sun altitude
Rises 07:51:41 0° 149° (SSE) 3,436 ? -4.5°
Reaches altitude 10° 07:54:51 10° 131° (SE) 2,498 ? -5.0°
Maximum altitude 07:58:36 18° 88° (E) 1,973 ? -5.7°
Drops below altitude 10° 08:02:20 10° 45° (NE) 2,500 ? -6.3°
Enters shadow 08:04:48 - 30° (NNE) 3,220 ? -6.7°
